User: anonymous   Login
Location: 相模原市立博物館
(35.5593°N, 139.3931°E)
Time: 14:32:05
(UTC+09:00)
Language:

CUBEBUG 2 - Orbit

View from above orbital plane
View from above orbital plane
View from above satellite
View from above satellite

Ground track
Ground track

The orbit data is extracted from the following two-line orbital elements,

1 39440U 13066AA  22024.46947436  .00000613  00000-0  91023-4 0  9998
2 39440  97.7076 348.3032 0078147 238.0721 121.2873 14.76509515439037
Epoch (UTC): 24 January 2022 11:16:02
Eccentricity: 0.0078147
inclination: 97.7076°
perigee height: 585 km
apogee height: 695 km
right ascension of ascending node: 348.3032°
argument of perigee: 238.0721°
revolutions per day: 14.76509515
mean anomaly at epoch: 121.2873°
orbit number at epoch: 43903

The dashed part of the orbit path shows where the satellite is in the earth's shadow,  

DLR